Weather in Moulins

France     46°33′56″N   3°20′06″E
temp.,
°C
wind,
m/s
gust,
m/s
humid.,
%
clouds,
%
prec.,
mm/h
press.,
hPa
HPBL,
m
12 april, mon
mon1223:00+3nnw2698100 0.1 1023698
02:00+2nw2610055 0.2 1025244
05:00−1nw149928 0.0 1027103
08:00−1nw159924 0.0 1029135
11:00+6n25524 0.0 10301068
14:00+10nnw3535100 0.0 10282351
17:00+10nnw463998 0.0 10282351
20:00+7n26555 0.0 1029268
13 april, tue
tue1323:00+1nw11803 0.0 103118
02:000nw11885 0.0 103220
05:00−2wnw11975 0.0 103215
08:00−1nw1291100 0.0 103265
11:00+3nne1373100 0.0 1032482
14:00+10ne243883 0.0 10301966
17:00+11nne34305 0.0 10282109
20:00+7nne38493 0.0 1028547
14 april, wed
wed1423:00+1nne16743 0.0 1030127
02:00−2n11844 0.0 103011
05:00−3n01855 0.0 102910
08:00−2nne00755 0.0 102933
11:00+7ene26415 0.0 10281289
14:00+11ne35295 0.0 10262161
17:00+12ne352997 0.0 10242540
20:00+8nne384987 0.0 1025838
15 april, thu
thu1523:00+3nne27725 0.0 1027216
02:00−1n11914 0.0 102727
05:00−2n11944 0.0 102713
08:00−1n11840 0.0 102741
11:00+7ne26461 0.0 10261260
14:00+11ene342919 0.0 10232332
17:00+12ne2428100 0.0 10212610
20:00+9ne2749100 0.0 1021465
16 april, fri
fri1623:00+2nne26710 0.0 1023149
02:00−1n11890 0.0 102314
05:00−2n11960 0.0 102310
08:00−1nnw11846 0.0 102332
11:00+7ene254747 0.0 10221114
14:00+11ne342965 0.0 10192616
17:00+11nne3533100 0.0 10182481
20:00+6nne2868100 0.3 1019317